Year,Month,Day,Hour,Minute,Value (Times are PST for temperature in C)
2008,04,23,00,00,9.00
2008,04,23,00,01,9.00
2008,04,23,00,02,9.00
2008,04,23,00,03,9.00
2008,04,23,00,04,9.00
2008,04,23,00,05,9.00
2008,04,23,00,06,9.00
2008,04,23,00,07,8.90
2008,04,23,00,08,8.90
2008,04,23,00,09,8.90
2008,04,23,00,10,8.90
2008,04,23,00,11,8.90
2008,04,23,00,12,8.90
2008,04,23,00,13,8.90
2008,04,23,00,14,8.90
2008,04,23,00,15,8.90
2008,04,23,00,16,8.80
2008,04,23,00,17,8.80
2008,04,23,00,18,8.80
2008,04,23,00,19,8.80
2008,04,23,00,20,8.80
2008,04,23,00,21,8.80
2008,04,23,00,22,8.80
2008,04,23,00,23,8.80
2008,04,23,00,24,8.80
2008,04,23,00,25,8.80
2008,04,23,00,26,8.80
2008,04,23,00,27,8.80
2008,04,23,00,28,8.80
2008,04,23,00,29,8.80
2008,04,23,00,30,8.80
2008,04,23,00,31,8.80
2008,04,23,00,32,8.80
2008,04,23,00,33,8.80
2008,04,23,00,34,8.80
2008,04,23,00,35,8.80
2008,04,23,00,36,8.80
2008,04,23,00,37,8.80
2008,04,23,00,38,8.80
2008,04,23,00,39,8.80
2008,04,23,00,40,8.70
2008,04,23,00,41,8.70
2008,04,23,00,42,8.70
2008,04,23,00,43,8.70
2008,04,23,00,44,8.60
2008,04,23,00,45,8.60
2008,04,23,00,46,8.60
2008,04,23,00,47,8.60
2008,04,23,00,48,8.60
2008,04,23,00,49,8.50
2008,04,23,00,50,8.50
2008,04,23,00,51,8.50
2008,04,23,00,52,8.40
2008,04,23,00,53,8.40
2008,04,23,00,54,8.40
2008,04,23,00,55,8.40
2008,04,23,00,56,8.40
2008,04,23,00,57,8.40
2008,04,23,00,58,8.40
2008,04,23,00,59,8.40
2008,04,23,01,00,8.30
2008,04,23,01,01,8.40
2008,04,23,01,02,8.30
2008,04,23,01,03,8.30
2008,04,23,01,04,8.30
2008,04,23,01,05,8.30
2008,04,23,01,06,8.30
2008,04,23,01,07,8.30
2008,04,23,01,08,8.30
2008,04,23,01,09,8.30
2008,04,23,01,10,8.30
2008,04,23,01,11,8.30
2008,04,23,01,12,8.30
2008,04,23,01,13,8.30
2008,04,23,01,14,8.30
2008,04,23,01,15,8.30
2008,04,23,01,16,8.30
2008,04,23,01,17,8.30
2008,04,23,01,18,8.30
2008,04,23,01,19,8.30
2008,04,23,01,20,8.30
2008,04,23,01,21,8.30
2008,04,23,01,22,8.30
2008,04,23,01,23,8.30
2008,04,23,01,24,8.30
2008,04,23,01,25,8.30
2008,04,23,01,26,8.30
2008,04,23,01,27,8.30
2008,04,23,01,28,8.30
2008,04,23,01,29,8.30
2008,04,23,01,30,8.30
2008,04,23,01,31,8.30
2008,04,23,01,32,8.30
2008,04,23,01,33,8.30
2008,04,23,01,34,8.30
2008,04,23,01,35,8.30
2008,04,23,01,36,8.30
2008,04,23,01,37,8.30
2008,04,23,01,38,8.30
2008,04,23,01,39,8.30
2008,04,23,01,40,8.30
2008,04,23,01,41,8.30
2008,04,23,01,42,8.30
2008,04,23,01,43,8.30
2008,04,23,01,44,8.30
2008,04,23,01,45,8.30
2008,04,23,01,46,8.30
2008,04,23,01,47,8.30
2008,04,23,01,48,8.30
2008,04,23,01,49,8.30
2008,04,23,01,50,8.30
2008,04,23,01,51,8.30
2008,04,23,01,52,8.30
2008,04,23,01,53,8.30
2008,04,23,01,54,8.40
2008,04,23,01,55,8.40
2008,04,23,01,56,8.40
2008,04,23,01,57,8.40
2008,04,23,01,58,8.40
2008,04,23,01,59,8.50
2008,04,23,02,00,8.50
2008,04,23,02,01,8.50
2008,04,23,02,02,8.50
2008,04,23,02,03,8.50
2008,04,23,02,04,8.50
2008,04,23,02,05,8.60
2008,04,23,02,06,8.60
2008,04,23,02,07,8.60
2008,04,23,02,08,8.60
2008,04,23,02,09,8.60
2008,04,23,02,10,8.60
2008,04,23,02,11,8.60
2008,04,23,02,12,8.60
2008,04,23,02,13,8.60
2008,04,23,02,14,8.60
2008,04,23,02,15,8.60
2008,04,23,02,16,8.60
2008,04,23,02,17,8.60
2008,04,23,02,18,8.60
2008,04,23,02,19,8.60
2008,04,23,02,20,8.60
2008,04,23,02,21,8.60
2008,04,23,02,22,8.60
2008,04,23,02,23,8.60
2008,04,23,02,24,8.60
2008,04,23,02,25,8.60
2008,04,23,02,26,8.60
2008,04,23,02,27,8.60
2008,04,23,02,28,8.60
2008,04,23,02,29,8.60
2008,04,23,02,30,8.60
2008,04,23,02,31,8.60
2008,04,23,02,32,8.60
2008,04,23,02,33,8.60
2008,04,23,02,34,8.50
2008,04,23,02,35,8.60
2008,04,23,02,36,8.60
2008,04,23,02,37,8.50
2008,04,23,02,38,8.60
2008,04,23,02,39,8.50
2008,04,23,02,40,8.50
2008,04,23,02,41,8.50
2008,04,23,02,42,8.50
2008,04,23,02,43,8.50
2008,04,23,02,44,8.50
2008,04,23,02,45,8.50
2008,04,23,02,46,8.50
2008,04,23,02,47,8.50
2008,04,23,02,48,8.50
2008,04,23,02,49,8.50
2008,04,23,02,50,8.50
2008,04,23,02,51,8.50
2008,04,23,02,52,8.50
2008,04,23,02,53,8.40
2008,04,23,02,54,8.40
2008,04,23,02,55,8.40
2008,04,23,02,56,8.40
2008,04,23,02,57,8.40
2008,04,23,02,58,8.40
2008,04,23,02,59,8.40
2008,04,23,03,00,8.40
2008,04,23,03,01,8.40
2008,04,23,03,02,8.40
2008,04,23,03,03,8.40
2008,04,23,03,04,8.40
2008,04,23,03,05,8.40
2008,04,23,03,06,8.40
2008,04,23,03,07,8.40
2008,04,23,03,08,8.40
2008,04,23,03,09,8.40
2008,04,23,03,10,8.40
2008,04,23,03,11,8.40
2008,04,23,03,12,8.40
2008,04,23,03,13,8.40
2008,04,23,03,14,8.40
2008,04,23,03,15,8.40
2008,04,23,03,16,8.40
2008,04,23,03,17,8.40
2008,04,23,03,18,8.40
2008,04,23,03,19,8.40
2008,04,23,03,20,8.40
2008,04,23,03,21,8.40
2008,04,23,03,22,8.40
2008,04,23,03,23,8.40
2008,04,23,03,24,8.40
2008,04,23,03,25,8.40
2008,04,23,03,26,8.40
2008,04,23,03,27,8.40
2008,04,23,03,28,8.40
2008,04,23,03,29,8.40
2008,04,23,03,30,8.40
2008,04,23,03,31,8.40
2008,04,23,03,32,8.40
2008,04,23,03,33,8.40
2008,04,23,03,34,8.40
2008,04,23,03,35,8.40
2008,04,23,03,36,8.40
2008,04,23,03,37,8.40
2008,04,23,03,38,8.40
2008,04,23,03,39,8.40
2008,04,23,03,40,8.30
2008,04,23,03,41,8.30
2008,04,23,03,42,8.30
2008,04,23,03,43,8.30
2008,04,23,03,44,8.20
2008,04,23,03,45,8.20
2008,04,23,03,46,8.20
2008,04,23,03,47,8.20
2008,04,23,03,48,8.20
2008,04,23,03,49,8.10
2008,04,23,03,50,8.10
2008,04,23,03,51,8.00
2008,04,23,03,52,8.00
2008,04,23,03,53,7.90
2008,04,23,03,54,7.90
2008,04,23,03,55,7.80
2008,04,23,03,56,7.80
2008,04,23,03,57,7.80
2008,04,23,03,58,7.80
2008,04,23,03,59,7.80
2008,04,23,04,00,7.80
2008,04,23,04,01,7.80
2008,04,23,04,02,7.80
2008,04,23,04,03,7.80
2008,04,23,04,04,7.80
2008,04,23,04,05,7.80
2008,04,23,04,06,7.80
2008,04,23,04,07,7.80
2008,04,23,04,08,7.80
2008,04,23,04,09,7.80
2008,04,23,04,10,7.80
2008,04,23,04,11,7.80
2008,04,23,04,12,7.80
2008,04,23,04,13,7.80
2008,04,23,04,14,7.80
2008,04,23,04,15,7.80
2008,04,23,04,16,7.80
2008,04,23,04,17,7.80
2008,04,23,04,18,7.80
2008,04,23,04,19,7.80
2008,04,23,04,20,7.80
2008,04,23,04,21,7.80
2008,04,23,04,22,7.80
2008,04,23,04,23,7.80
2008,04,23,04,24,7.80
2008,04,23,04,25,7.80
2008,04,23,04,26,7.80
2008,04,23,04,27,7.80
2008,04,23,04,28,7.80
2008,04,23,04,29,7.80
2008,04,23,04,30,7.80
2008,04,23,04,31,7.80
2008,04,23,04,32,7.80
2008,04,23,04,33,7.70
2008,04,23,04,34,7.70
2008,04,23,04,35,7.60
2008,04,23,04,36,7.60
2008,04,23,04,37,7.50
2008,04,23,04,38,7.40
2008,04,23,04,39,7.30
2008,04,23,04,40,7.30
2008,04,23,04,41,7.20
2008,04,23,04,42,7.20
2008,04,23,04,43,7.10
2008,04,23,04,44,7.10
2008,04,23,04,45,7.00
2008,04,23,04,46,7.00
2008,04,23,04,47,6.90
2008,04,23,04,48,6.90
2008,04,23,04,49,6.80
2008,04,23,04,50,6.80
2008,04,23,04,51,6.80
2008,04,23,04,52,6.80
2008,04,23,04,53,6.70
2008,04,23,04,54,6.70
2008,04,23,04,55,6.70
2008,04,23,04,56,6.70
2008,04,23,04,57,6.60
2008,04,23,04,58,6.60
2008,04,23,04,59,6.60
2008,04,23,05,00,6.60
2008,04,23,05,01,6.70
2008,04,23,05,02,6.70
2008,04,23,05,03,6.80
2008,04,23,05,04,6.80
2008,04,23,05,05,6.80
2008,04,23,05,06,6.90
2008,04,23,05,07,6.90
2008,04,23,05,08,6.90
2008,04,23,05,09,6.90
2008,04,23,05,10,6.90
2008,04,23,05,11,6.90
2008,04,23,05,12,6.90
2008,04,23,05,13,6.90
2008,04,23,05,14,6.90
2008,04,23,05,15,6.90
2008,04,23,05,16,6.80
2008,04,23,05,17,6.80
2008,04,23,05,18,6.80
2008,04,23,05,19,6.80
2008,04,23,05,20,6.80
2008,04,23,05,21,6.80
2008,04,23,05,22,6.80
2008,04,23,05,23,6.80
2008,04,23,05,24,6.80
2008,04,23,05,25,6.70
2008,04,23,05,26,6.70
2008,04,23,05,27,6.70
2008,04,23,05,28,6.70
2008,04,23,05,29,6.60
2008,04,23,05,30,6.60
2008,04,23,05,31,6.60
2008,04,23,05,32,6.60
2008,04,23,05,33,6.50
2008,04,23,05,34,6.50
2008,04,23,05,35,6.50
2008,04,23,05,36,6.50
2008,04,23,05,37,6.50
2008,04,23,05,38,6.50
2008,04,23,05,39,6.50
2008,04,23,05,40,6.40
2008,04,23,05,41,6.40
2008,04,23,05,42,6.50
2008,04,23,05,43,6.50
2008,04,23,05,44,6.60
2008,04,23,05,45,6.60
2008,04,23,05,46,6.70
2008,04,23,05,47,6.70
2008,04,23,05,48,6.80
2008,04,23,05,49,6.80
2008,04,23,05,50,6.80
2008,04,23,05,51,6.80
2008,04,23,05,52,6.80
2008,04,23,05,53,6.80
2008,04,23,05,54,6.80
2008,04,23,05,55,6.80
2008,04,23,05,56,6.80
2008,04,23,05,57,6.70
2008,04,23,05,58,6.70
2008,04,23,05,59,6.70
2008,04,23,06,00,6.60
2008,04,23,06,01,6.60
2008,04,23,06,02,6.60
2008,04,23,06,03,6.60
2008,04,23,06,04,6.60
2008,04,23,06,05,6.60
2008,04,23,06,06,6.60
2008,04,23,06,07,6.60
2008,04,23,06,08,6.60
2008,04,23,06,09,6.60
2008,04,23,06,10,6.50
2008,04,23,06,11,6.50
2008,04,23,06,12,6.50
2008,04,23,06,13,6.50
2008,04,23,06,14,6.40
2008,04,23,06,15,6.40
2008,04,23,06,16,6.40
2008,04,23,06,17,6.40
2008,04,23,06,18,6.40
2008,04,23,06,19,6.40
2008,04,23,06,20,6.40
2008,04,23,06,21,6.40
2008,04,23,06,22,6.40
2008,04,23,06,23,6.40
2008,04,23,06,24,6.40
2008,04,23,06,25,6.40
2008,04,23,06,26,6.40
2008,04,23,06,27,6.40
2008,04,23,06,28,6.40
2008,04,23,06,29,6.40
2008,04,23,06,30,6.40
2008,04,23,06,31,6.40
2008,04,23,06,32,6.30
2008,04,23,06,33,6.30
2008,04,23,06,34,6.30
2008,04,23,06,35,6.30
2008,04,23,06,36,6.30
2008,04,23,06,37,6.30
2008,04,23,06,38,6.30
2008,04,23,06,39,6.20
2008,04,23,06,40,6.20
2008,04,23,06,41,6.20
2008,04,23,06,42,6.20
2008,04,23,06,43,6.20
2008,04,23,06,44,6.20
2008,04,23,06,45,6.20
2008,04,23,06,46,6.20
2008,04,23,06,47,6.30
2008,04,23,06,48,6.30
2008,04,23,06,49,6.30
2008,04,23,06,50,6.30
2008,04,23,06,51,6.30
2008,04,23,06,52,6.30
2008,04,23,06,53,6.30
2008,04,23,06,54,6.30
2008,04,23,06,55,6.30
2008,04,23,06,56,6.30
2008,04,23,06,57,6.20
2008,04,23,06,58,6.20
2008,04,23,06,59,6.20
2008,04,23,07,00,6.20
2008,04,23,07,01,6.20
2008,04,23,07,02,6.20
2008,04,23,07,03,6.10
2008,04,23,07,04,6.10
2008,04,23,07,05,6.10
2008,04,23,07,06,6.10
2008,04,23,07,07,6.10
2008,04,23,07,08,6.10
2008,04,23,07,09,6.10
2008,04,23,07,10,6.10
2008,04,23,07,11,6.10
2008,04,23,07,12,6.10
2008,04,23,07,13,6.00
2008,04,23,07,14,6.00
2008,04,23,07,15,6.00
2008,04,23,07,16,5.90
2008,04,23,07,17,5.90
2008,04,23,07,18,5.90
2008,04,23,07,19,5.90
2008,04,23,07,20,5.90
2008,04,23,07,21,5.80
2008,04,23,07,22,5.80
2008,04,23,07,23,5.80
2008,04,23,07,24,5.80
2008,04,23,07,25,5.70
2008,04,23,07,26,5.70
2008,04,23,07,27,5.70
2008,04,23,07,28,5.70
2008,04,23,07,29,5.60
2008,04,23,07,30,5.60
2008,04,23,07,31,5.60
2008,04,23,07,32,5.60
2008,04,23,07,33,5.50
2008,04,23,07,34,5.50
2008,04,23,07,35,5.50
2008,04,23,07,36,5.50
2008,04,23,07,37,5.50
2008,04,23,07,38,5.40
2008,04,23,07,39,5.40
2008,04,23,07,40,5.40
2008,04,23,07,41,5.40
2008,04,23,07,42,5.40
2008,04,23,07,43,5.40
2008,04,23,07,44,5.40
2008,04,23,07,45,5.40
2008,04,23,07,46,5.40
2008,04,23,07,47,5.40
2008,04,23,07,48,5.40
2008,04,23,07,49,5.40
2008,04,23,07,50,5.40
2008,04,23,07,51,5.40
2008,04,23,07,52,5.40
2008,04,23,07,53,5.40
2008,04,23,07,54,5.40
2008,04,23,07,55,5.40
2008,04,23,07,56,5.40
2008,04,23,07,57,5.40
2008,04,23,07,58,5.40
2008,04,23,07,59,5.40
2008,04,23,08,00,5.40
2008,04,23,08,01,5.40
2008,04,23,08,02,5.50
2008,04,23,08,03,5.50
2008,04,23,08,04,5.40
2008,04,23,08,05,5.50
2008,04,23,08,06,5.50
2008,04,23,08,07,5.50
2008,04,23,08,08,5.50
2008,04,23,08,09,5.50
2008,04,23,08,10,5.50
2008,04,23,08,11,5.50
2008,04,23,08,12,5.50
2008,04,23,08,13,5.50
2008,04,23,08,14,5.40
2008,04,23,08,15,5.50
2008,04,23,08,16,5.40
2008,04,23,08,17,5.40
2008,04,23,08,18,5.40
2008,04,23,08,19,5.40
2008,04,23,08,20,5.40
2008,04,23,08,21,5.40
2008,04,23,08,22,5.40
2008,04,23,08,23,5.40
2008,04,23,08,24,5.40
2008,04,23,08,25,5.40
2008,04,23,08,26,5.40
2008,04,23,08,27,5.40
2008,04,23,08,28,5.40
2008,04,23,08,29,5.40
2008,04,23,08,30,5.40
2008,04,23,08,31,5.40
2008,04,23,08,32,5.40
2008,04,23,08,33,5.40
2008,04,23,08,34,5.40
2008,04,23,08,35,5.40
2008,04,23,08,36,5.40
2008,04,23,08,37,5.40
2008,04,23,08,38,5.40
2008,04,23,08,39,5.40
2008,04,23,08,40,5.40
2008,04,23,08,41,5.40
2008,04,23,08,42,5.40
2008,04,23,08,43,5.40
2008,04,23,08,44,5.40
2008,04,23,08,45,5.40
2008,04,23,08,46,5.40
2008,04,23,08,47,5.40
2008,04,23,08,48,5.40
2008,04,23,08,49,5.50
2008,04,23,08,50,5.50
2008,04,23,08,51,5.50
2008,04,23,08,52,5.50
2008,04,23,08,53,5.50
2008,04,23,08,54,5.50
2008,04,23,08,55,5.50
2008,04,23,08,56,5.40
2008,04,23,08,57,5.40
2008,04,23,08,58,5.40
2008,04,23,08,59,5.40
2008,04,23,09,00,5.40
2008,04,23,09,01,5.40
2008,04,23,09,02,5.40
2008,04,23,09,03,5.40
2008,04,23,09,04,5.40
2008,04,23,09,05,5.30
2008,04,23,09,06,5.30
2008,04,23,09,07,5.30
2008,04,23,09,08,5.30
2008,04,23,09,09,5.30
2008,04,23,09,10,5.30
2008,04,23,09,11,5.30
2008,04,23,09,12,5.20
2008,04,23,09,13,5.20
2008,04,23,09,14,5.20
2008,04,23,09,15,5.20
2008,04,23,09,16,5.20
2008,04,23,09,17,5.20
2008,04,23,09,18,5.20
2008,04,23,09,19,5.20
2008,04,23,09,20,5.20
2008,04,23,09,21,5.20
2008,04,23,09,22,5.10
2008,04,23,09,23,5.10
2008,04,23,09,24,5.10
2008,04,23,09,25,5.10
2008,04,23,09,26,5.10
2008,04,23,09,27,5.10
2008,04,23,09,28,5.10
2008,04,23,09,29,5.10
2008,04,23,09,30,5.10
2008,04,23,09,31,5.10
2008,04,23,09,32,5.20
2008,04,23,09,33,5.20
2008,04,23,09,34,5.20
2008,04,23,09,35,5.20
2008,04,23,09,36,5.20
2008,04,23,09,37,5.20
2008,04,23,09,38,5.20
2008,04,23,09,39,5.20
2008,04,23,09,40,5.20
2008,04,23,09,41,5.20
2008,04,23,09,42,5.20
2008,04,23,09,43,5.20
2008,04,23,09,44,5.30
2008,04,23,09,45,5.30
2008,04,23,09,46,5.30
2008,04,23,09,47,5.30
2008,04,23,09,48,5.30
2008,04,23,09,49,5.30
2008,04,23,09,50,5.30
2008,04,23,09,51,5.40
2008,04,23,09,52,5.40
2008,04,23,09,53,5.40
2008,04,23,09,54,5.40
2008,04,23,09,55,5.40
2008,04,23,09,56,5.40
2008,04,23,09,57,5.40
2008,04,23,09,58,5.30
2008,04,23,09,59,5.30
2008,04,23,10,00,5.30
2008,04,23,10,01,5.30
2008,04,23,10,02,5.30
2008,04,23,10,03,5.30
2008,04,23,10,04,5.30
2008,04,23,10,05,5.30
2008,04,23,10,06,5.30
2008,04,23,10,07,5.40
2008,04,23,10,08,5.30
2008,04,23,10,09,5.30
2008,04,23,10,10,5.30
2008,04,23,10,11,5.30
2008,04,23,10,12,5.30
2008,04,23,10,13,5.30
2008,04,23,10,14,5.30
2008,04,23,10,15,5.30
2008,04,23,10,16,5.30
2008,04,23,10,17,5.30
2008,04,23,10,18,5.30
2008,04,23,10,19,5.30
2008,04,23,10,20,5.30
2008,04,23,10,21,5.40
2008,04,23,10,22,5.30
2008,04,23,10,23,5.30
2008,04,23,10,24,5.30
2008,04,23,10,25,5.30
2008,04,23,10,26,5.30
2008,04,23,10,27,5.30
2008,04,23,10,28,5.30
2008,04,23,10,29,5.30
2008,04,23,10,30,5.30
2008,04,23,10,31,5.30
2008,04,23,10,32,5.30
2008,04,23,10,33,5.30
2008,04,23,10,34,5.30
2008,04,23,10,35,5.30
2008,04,23,10,36,5.30
2008,04,23,10,37,5.40
2008,04,23,10,38,5.40
2008,04,23,10,39,5.40
2008,04,23,10,40,5.40
2008,04,23,10,41,5.50
2008,04,23,10,42,5.50
2008,04,23,10,43,5.50
2008,04,23,10,44,5.60
2008,04,23,10,45,5.60
2008,04,23,10,46,5.60
2008,04,23,10,47,5.60
2008,04,23,10,48,5.70
2008,04,23,10,49,5.70
2008,04,23,10,50,5.80
2008,04,23,10,51,5.80
2008,04,23,10,52,5.90
2008,04,23,10,53,5.90
2008,04,23,10,54,6.00
2008,04,23,10,55,6.00
2008,04,23,10,56,6.10
2008,04,23,10,57,6.10
2008,04,23,10,58,6.20
2008,04,23,10,59,6.20
2008,04,23,11,00,6.20
2008,04,23,11,01,6.30
2008,04,23,11,02,6.30
2008,04,23,11,03,6.30
2008,04,23,11,04,6.30
2008,04,23,11,05,6.30
2008,04,23,11,06,6.30
2008,04,23,11,07,6.30
2008,04,23,11,08,6.30
2008,04,23,11,09,6.30
2008,04,23,11,10,6.30
2008,04,23,11,11,6.30
2008,04,23,11,12,6.30
2008,04,23,11,13,6.30
2008,04,23,11,14,6.30
2008,04,23,11,15,6.30
2008,04,23,11,16,6.30
2008,04,23,11,17,6.30
2008,04,23,11,18,6.30
2008,04,23,11,19,6.30
2008,04,23,11,20,6.30
2008,04,23,11,21,6.30
2008,04,23,11,22,6.30
2008,04,23,11,23,6.30
2008,04,23,11,24,6.30
2008,04,23,11,25,6.30
2008,04,23,11,26,6.30
2008,04,23,11,27,6.30
2008,04,23,11,28,6.30
2008,04,23,11,29,6.30
2008,04,23,11,30,6.30
2008,04,23,11,31,6.30
2008,04,23,11,32,6.30
2008,04,23,11,33,6.30
2008,04,23,11,34,6.30
2008,04,23,11,35,6.30
2008,04,23,11,36,6.30
2008,04,23,11,37,6.30
2008,04,23,11,38,6.30
2008,04,23,11,39,6.30
2008,04,23,11,40,6.30
2008,04,23,11,41,6.30
2008,04,23,11,42,6.30
2008,04,23,11,43,6.30
2008,04,23,11,44,6.30
2008,04,23,11,45,6.20
2008,04,23,11,46,6.20
2008,04,23,11,47,6.20
2008,04,23,11,48,6.20
2008,04,23,11,49,6.20
2008,04,23,11,50,6.20
2008,04,23,11,51,6.20
2008,04,23,11,52,6.20
2008,04,23,11,53,6.20
2008,04,23,11,54,6.20
2008,04,23,11,55,6.30
2008,04,23,11,56,6.30
2008,04,23,11,57,6.30
2008,04,23,11,58,6.20
2008,04,23,11,59,6.20
2008,04,23,12,00,6.10
2008,04,23,12,01,6.00
2008,04,23,12,02,6.00
2008,04,23,12,03,5.90
2008,04,23,12,04,5.90
2008,04,23,12,05,5.90
2008,04,23,12,06,5.90
2008,04,23,12,07,5.90
2008,04,23,12,08,5.90
2008,04,23,12,09,5.80
2008,04,23,12,10,5.80
2008,04,23,12,11,5.80
2008,04,23,12,12,5.80
2008,04,23,12,13,5.80
2008,04,23,12,14,5.80
2008,04,23,12,15,5.80
2008,04,23,12,16,5.80
2008,04,23,12,17,5.80
2008,04,23,12,18,5.80
2008,04,23,12,19,5.80
2008,04,23,12,20,5.80
2008,04,23,12,21,5.80
2008,04,23,12,22,5.80
2008,04,23,12,23,5.80
2008,04,23,12,24,5.80
2008,04,23,12,25,5.80
2008,04,23,12,26,5.80
2008,04,23,12,27,5.80
2008,04,23,12,28,5.80
2008,04,23,12,29,5.80
2008,04,23,12,30,5.80
2008,04,23,12,31,5.80
2008,04,23,12,32,5.80
2008,04,23,12,33,5.90
2008,04,23,12,34,5.90
2008,04,23,12,35,5.90
2008,04,23,12,36,5.90
2008,04,23,12,37,5.90
2008,04,23,12,38,5.90
2008,04,23,12,39,5.90
2008,04,23,12,40,5.90
2008,04,23,12,41,5.90
2008,04,23,12,42,5.90
2008,04,23,12,43,5.90
2008,04,23,12,44,5.90
2008,04,23,12,45,5.90
2008,04,23,12,46,5.90
2008,04,23,12,47,5.90
2008,04,23,12,48,6.00
2008,04,23,12,49,6.00
2008,04,23,12,50,6.00
2008,04,23,12,51,6.00
2008,04,23,12,52,6.10
2008,04,23,12,53,6.10
2008,04,23,12,54,6.10
2008,04,23,12,55,6.10
2008,04,23,12,56,6.10
2008,04,23,12,57,6.10
2008,04,23,12,58,6.10
2008,04,23,12,59,6.10
2008,04,23,13,00,6.20
2008,04,23,13,01,6.20
2008,04,23,13,02,6.20
2008,04,23,13,03,6.20
2008,04,23,13,04,6.20
2008,04,23,13,05,6.20
2008,04,23,13,06,6.20
2008,04,23,13,07,6.20
2008,04,23,13,08,6.20
2008,04,23,13,09,6.20
2008,04,23,13,10,6.20
2008,04,23,13,11,6.20
2008,04,23,13,12,6.20
2008,04,23,13,13,6.20
2008,04,23,13,14,6.20
2008,04,23,13,15,6.20
2008,04,23,13,16,6.20
2008,04,23,13,17,6.20
2008,04,23,13,18,6.20
2008,04,23,13,19,6.20
2008,04,23,13,20,6.20
2008,04,23,13,21,6.20
2008,04,23,13,22,6.20
2008,04,23,13,23,6.20
2008,04,23,13,24,6.30
2008,04,23,13,25,6.30
2008,04,23,13,26,6.30
2008,04,23,13,27,6.30
2008,04,23,13,28,6.30
2008,04,23,13,29,6.30
2008,04,23,13,30,6.30
2008,04,23,13,31,6.30
2008,04,23,13,32,6.20
2008,04,23,13,33,6.20
2008,04,23,13,34,6.20
2008,04,23,13,35,6.20
2008,04,23,13,36,6.20
2008,04,23,13,37,6.20
2008,04,23,13,38,6.20
2008,04,23,13,39,6.20
2008,04,23,13,40,6.20
2008,04,23,13,41,6.20
2008,04,23,13,42,6.20
2008,04,23,13,43,6.20
2008,04,23,13,44,6.20
2008,04,23,13,45,6.20
2008,04,23,13,46,6.20
2008,04,23,13,47,6.20
2008,04,23,13,48,6.20
2008,04,23,13,49,6.20
2008,04,23,13,50,6.20
2008,04,23,13,51,6.20
2008,04,23,13,52,6.20
2008,04,23,13,53,6.20
2008,04,23,13,54,6.20
2008,04,23,13,55,6.20
2008,04,23,13,56,6.20
2008,04,23,13,57,6.30
2008,04,23,13,58,6.30
2008,04,23,13,59,6.30
2008,04,23,14,00,6.30
2008,04,23,14,01,6.30
2008,04,23,14,02,6.30
2008,04,23,14,03,6.40
2008,04,23,14,04,6.40
2008,04,23,14,05,6.50
2008,04,23,14,06,6.50
2008,04,23,14,07,6.60
2008,04,23,14,08,6.60
2008,04,23,14,09,6.60
2008,04,23,14,10,6.70
2008,04,23,14,11,6.80
2008,04,23,14,12,6.80
2008,04,23,14,13,6.90
2008,04,23,14,14,7.00
2008,04,23,14,15,7.10
2008,04,23,14,16,7.20
2008,04,23,14,17,7.20
2008,04,23,14,18,7.20
2008,04,23,14,19,7.20
2008,04,23,14,20,7.20
2008,04,23,14,21,7.30
2008,04,23,14,22,7.30
2008,04,23,14,23,7.30
2008,04,23,14,24,7.30
2008,04,23,14,25,7.30
2008,04,23,14,26,7.30
2008,04,23,14,27,7.40
2008,04,23,14,28,7.40
2008,04,23,14,29,7.40
2008,04,23,14,30,7.40
2008,04,23,14,31,7.40
2008,04,23,14,32,7.40
2008,04,23,14,33,7.50
2008,04,23,14,34,7.50
2008,04,23,14,35,7.60
2008,04,23,14,36,7.70
2008,04,23,14,37,7.70
2008,04,23,14,38,7.80
2008,04,23,14,39,7.80
2008,04,23,14,40,7.90
2008,04,23,14,41,7.90
2008,04,23,14,42,8.00
2008,04,23,14,43,8.10
2008,04,23,14,44,8.10
2008,04,23,14,45,8.20
2008,04,23,14,46,8.30
2008,04,23,14,47,8.30
2008,04,23,14,48,8.40
2008,04,23,14,49,8.40
2008,04,23,14,50,8.50
2008,04,23,14,51,8.50
2008,04,23,14,52,8.50
2008,04,23,14,53,8.50
2008,04,23,14,54,8.60
2008,04,23,14,55,8.60
2008,04,23,14,56,8.50
2008,04,23,14,57,8.40
2008,04,23,14,58,8.40
2008,04,23,14,59,8.50
2008,04,23,15,00,8.50
2008,04,23,15,01,8.60
2008,04,23,15,02,8.70
2008,04,23,15,03,8.80
2008,04,23,15,04,8.90
2008,04,23,15,05,9.00
2008,04,23,15,06,9.10
2008,04,23,15,07,9.20
2008,04,23,15,08,9.20
2008,04,23,15,09,9.30
2008,04,23,15,10,9.40
2008,04,23,15,11,9.40
2008,04,23,15,12,9.40
2008,04,23,15,13,9.40
2008,04,23,15,14,9.40
2008,04,23,15,15,9.40
2008,04,23,15,16,9.40
2008,04,23,15,17,9.40
2008,04,23,15,18,9.40
2008,04,23,15,19,9.30
2008,04,23,15,20,9.40
2008,04,23,15,21,9.40
2008,04,23,15,22,9.30
2008,04,23,15,23,9.30
2008,04,23,15,24,9.30
2008,04,23,15,25,9.30
2008,04,23,15,26,9.30
2008,04,23,15,27,9.30
2008,04,23,15,28,9.40
2008,04,23,15,29,9.40
2008,04,23,15,30,9.40
2008,04,23,15,31,9.40
2008,04,23,15,32,9.30
2008,04,23,15,33,9.20
2008,04,23,15,34,9.10
2008,04,23,15,35,9.10
2008,04,23,15,36,9.00
2008,04,23,15,37,9.00
2008,04,23,15,38,8.90
2008,04,23,15,39,9.00
2008,04,23,15,40,9.00
2008,04,23,15,41,9.10
2008,04,23,15,42,9.20
2008,04,23,15,43,9.30
2008,04,23,15,44,9.40
2008,04,23,15,45,9.50
2008,04,23,15,46,9.50
2008,04,23,15,47,9.60
2008,04,23,15,48,9.70
2008,04,23,15,49,9.70
2008,04,23,15,50,9.70
2008,04,23,15,51,9.70
2008,04,23,15,52,9.70
2008,04,23,15,53,9.60
2008,04,23,15,54,9.50
2008,04,23,15,55,9.50
2008,04,23,15,56,9.50
2008,04,23,15,57,9.50
2008,04,23,15,58,9.40
2008,04,23,15,59,9.40
2008,04,23,16,00,9.40
2008,04,23,16,01,9.50
2008,04,23,16,02,9.50
2008,04,23,16,03,9.60
2008,04,23,16,04,9.60
2008,04,23,16,05,9.60
2008,04,23,16,06,9.60
2008,04,23,16,07,9.60
2008,04,23,16,08,9.60
2008,04,23,16,09,9.60
2008,04,23,16,10,9.80
2008,04,23,16,11,9.90
2008,04,23,16,12,9.90
2008,04,23,16,13,9.90
2008,04,23,16,14,9.90
2008,04,23,16,15,10.00
2008,04,23,16,16,10.10
2008,04,23,16,17,10.20
2008,04,23,16,18,10.20
2008,04,23,16,19,10.10
2008,04,23,16,20,10.10
2008,04,23,16,21,10.10
2008,04,23,16,22,10.00
2008,04,23,16,23,9.90
2008,04,23,16,24,9.80
2008,04,23,16,25,9.60
2008,04,23,16,26,9.60
2008,04,23,16,27,9.60
2008,04,23,16,28,9.60
2008,04,23,16,29,9.60
2008,04,23,16,30,9.50
2008,04,23,16,31,9.50
2008,04,23,16,32,9.50
2008,04,23,16,33,9.60
2008,04,23,16,34,9.70
2008,04,23,16,35,9.70
2008,04,23,16,36,9.70
2008,04,23,16,37,9.90
2008,04,23,16,38,9.90
2008,04,23,16,39,10.00
2008,04,23,16,40,10.00
2008,04,23,16,41,10.00
2008,04,23,16,42,10.10
2008,04,23,16,43,9.90
2008,04,23,16,44,9.80
2008,04,23,16,45,9.80
2008,04,23,16,46,9.70
2008,04,23,16,47,9.70
2008,04,23,16,48,9.70
2008,04,23,16,49,9.80
2008,04,23,16,50,9.80
2008,04,23,16,51,9.80
2008,04,23,16,52,9.70
2008,04,23,16,53,9.70
2008,04,23,16,54,9.60
2008,04,23,16,55,9.60
2008,04,23,16,56,9.60
2008,04,23,16,57,9.70
2008,04,23,16,58,9.70
2008,04,23,16,59,9.80
2008,04,23,17,00,9.80
2008,04,23,17,01,9.80
2008,04,23,17,02,9.80
2008,04,23,17,03,9.80
2008,04,23,17,04,9.70
2008,04,23,17,05,9.80
2008,04,23,17,06,9.80
2008,04,23,17,07,9.90
2008,04,23,17,08,10.00
2008,04,23,17,09,10.10
2008,04,23,17,10,10.20
2008,04,23,17,11,10.30
2008,04,23,17,12,10.30
2008,04,23,17,13,10.40
2008,04,23,17,14,10.30
2008,04,23,17,15,10.30
2008,04,23,17,16,10.30
2008,04,23,17,17,10.40
2008,04,23,17,18,10.40
2008,04,23,17,19,10.40
2008,04,23,17,20,10.40
2008,04,23,17,21,10.40
2008,04,23,17,22,10.40
2008,04,23,17,23,10.40
2008,04,23,17,24,10.40
2008,04,23,17,25,10.40
2008,04,23,17,26,10.40
2008,04,23,17,27,10.40
2008,04,23,17,28,10.40
2008,04,23,17,29,10.40
2008,04,23,17,30,10.40
2008,04,23,17,31,10.30
2008,04,23,17,32,10.30
2008,04,23,17,33,10.20
2008,04,23,17,34,10.20
2008,04,23,17,35,10.20
2008,04,23,17,36,10.20
2008,04,23,17,37,10.20
2008,04,23,17,38,10.20
2008,04,23,17,39,10.30
2008,04,23,17,40,10.30
2008,04,23,17,41,10.30
2008,04,23,17,42,10.30
2008,04,23,17,43,10.30
2008,04,23,17,44,10.40
2008,04,23,17,45,10.50
2008,04,23,17,46,10.50
2008,04,23,17,47,10.60
2008,04,23,17,48,10.60
2008,04,23,17,49,10.60
2008,04,23,17,50,10.60
2008,04,23,17,51,10.50
2008,04,23,17,52,10.40
2008,04,23,17,53,10.30
2008,04,23,17,54,10.20
2008,04,23,17,55,10.20
2008,04,23,17,56,10.20
2008,04,23,17,57,10.30
2008,04,23,17,58,10.30
2008,04,23,17,59,10.40
2008,04,23,18,00,10.40
2008,04,23,18,01,10.40
2008,04,23,18,02,10.50
2008,04,23,18,03,10.60